SCP
0 0 1 1 1 1 1 1 0 0 0 0 0 0 0 1 1 1 1 1 1 1 1 1 1 1 1 1 1 1 1 1 1 1 1 1 1 1 1 1 1 1 1
0 0 1 1 1 1 1 1 0 0 0 0 0 0 0 0 1 1 1 1 1 1 1 1 1 1 1 1 1 1 1 1 1 1 1 1 1 1 1 1 1 1 1
0 0 0 1 1 1 1 1 0 0 0 0 0 0 0 0 0 1 1 1 1 1 1 1 1 1 1 1 1 1 1 1 1 1 1 1 1 1 1 1 1 1 1
0 0 0 1 1 1 1 1 0 0 0 0 0 0 0 0 0 0 1 1 1 1 1 1 1 1 1 1 1 1 1 1 1 1 1 1 1 1 1 1 1 1 1
0 0 1 1 0 0 0 0 0 0 0 0 0 0 0 0 0 0 0 1 1 1 1 1 1 1 1 1 1 1 1 1 1 1 1 1 1 1 1 1 1 1 1
1 1 1 1 0 0 0 0 0 0 0 0 0 0 0 0 0 0 0 0 1 1 1 1 1 1 1 1 1 1 1 1 1 1 1 1 1 1 1 1 1 0 0
1 1 1 1 0 0 0 0 0 0 0 0 0 0 0 0 0 0 0 1 1 1 1 1 1 1 1 1 1 1 1 1 1 1 1 1 1 1 1 0 0 1 1
1 1 1 1 1 0 0 0 0 0 0 1 1 1 0 0 0 0 1 1 1 1 1 1 1 2 2 2 2 1 1 1 1 1 1 1 1 1 0 0 1 1 1
1 1 1 1 1 1 1 1 1 1 1 1 1 1 1 1 1 1 1 1 1 1 1 1 1 1 2 3 2 1 1 1 1 1 1 1 1 1 1 1 1 1 1
1 1 1 1 1 1 1 1 1 1 1 1 1 1 1 1 1 1 1 1 1 1 1 1 1 1 2 3 3 2 1 1 1 1 1 1 1 1 1 1 1 1 1
1 1 1 1 1 1 1 1 1 0 0 1 1 1 1 1 1 1 1 1 1 1 1 1 1 1 2 3 3 2 1 1 1 1 1 1 1 1 1 1 1 1 1
0 0 1 1 1 1 1 1 1 1 0 0 0 1 1 1 1 1 1 1 1 1 1 1 1 1 2 2 2 2 1 0 0 1 1 1 1 1 1 1 1 1 1
0 0 0 1 1 1 1 1 1 1 1 0 0 1 1 1 1 1 1 1 1 1 1 1 1 1 1 2 2 1 1 0 0 1 1 1 1 2 2 1 1 1 1
0 0 0 0 0 1 1 1 1 1 1 1 0 1 1 1 1 1 1 1 1 1 1 1 1 1 1 2 1 1 1 0 0 0 1 1 1 2 2 2 2 2 1
0 0 0 0 0 1 1 1 1 1 1 1 1 1 0 0 0 0 0 0 1 1 1 1 1 1 1 1 1 1 1 0 0 0 0 1 1 1 1 2 2 2 2
0 0 0 0 0 0 1 1 1 1 1 1 1 1 0 0 0 0 0 0 0 0 0 1 1 1 1 1 1 1 1 1 0 0 0 0 1 1 1 1 2 2 2
0 0 0 0 0 0 0 1 1 1 1 1 1 0 0 0 0 0 0 0 0 0 0 0 0 0 0 1 1 1 1 1 0 0 0 0 0 0 1 1 1 2 2
0 0 0 0 0 0 0 0 0 0 1 1 0 0 0 0 0 0 0 0 0 0 0 0 0 0 0 1 1 1 1 1 0 0 0 0 0 0 0 1 1 1 2
0 0 0 0 0 0 0 0 0 0 0 0 0 0 0 0 0 0 0 0 0 0 0 0 0 0 0 1 1 1 1 1 0 0 0 0 0 0 0 0 1 1 1
0 0 0 0 0 0 0 0 0 0 0 0 0 0 0 0 0 0 0 0 0 0 0 0 0 0 0 1 1 1 1 1 0 0 0 0 0 0 0 0 0 1 1
1 1 1 0 0 0 0 0 0 0 0 0 0 0 0 0 0 0 0 0 0 0 0 0 0 0 0 1 1 1 1 0 0 0 0 0 0 1 1 1 0 0 0
1 1 1 0 0 0 0 0 0 0 0 0 0 0 0 0 0 0 0 0 0 0 0 0 0 0 0 1 1 1 0 0 0 0 0 0 0 1 1 1 1 0 0
0 0 0 0 0 0 0 0 0 0 0 0 0 0 0 0 0 0 0 0 0 0 0 0 0 0 0 1 1 0 0 0 0 0 0 0 0 0 1 1 0 0 0
0 0 0 0 0 0 0 0 0 0 0 0 0 0 0 0 0 0 0 0 0 0 0 0 0 0 0 0 0 0 0 0 0 0 0 0 0 0 0 0 0 0 0
0 0 0 0 0 0 0 0 0 0 0 0 0 0 0 0 0 0 0 0 0 0 0 0 0 0 0 0 0 0 0 0 0 0 0 0 0 0 0 0 0 0 0
0 0 0 0 0 0 0 0 0 0 0 0 0 0 0 0 0 0 0 0 0 0 0 0 0 0 0 0 0 0 0 0 0 0 0 0 0 0 0 0 0 0 0
Wind_Speed
3 3 3 3 4 3 4 4 4 5 5 6 6 6 6 6 5 5 5 11 11 10 10 10 9 9 8 8 8 8 8 7 7 6 6 6 6 5 5 5 5 5 5
3 3 3 3 3 3 3 3 5 4 4 5 5 6 5 5 5 5 5 7 10 10 10 10 9 9 8 8 8 7 7 7 7 6 7 7 7 6 6 6 6 6 6
3 3 2 3 3 3 4 3 5 4 4 4 5 5 5 5 5 5 4 4 5 9 10 10 9 9 8 7 7 7 7 7 7 6 6 7 7 7 7 7 7 7 7
3 3 2 3 3 3 3 3 3 4 4 4 4 4 3 3 4 4 4 4 4 4 7 10 9 9 8 8 7 7 7 7 7 6 6 6 6 7 7 7 7 7 6
3 3 2 2 3 3 3 3 3 3 4 4 4 3 3 3 3 3 4 4 4 3 4 7 8 9 9 8 8 7 7 6 6 6 6 6 6 6 6 6 6 6 5
3 3 2 3 3 3 3 3 4 3 3 3 3 3 3 2 2 3 3 3 3 4 4 4 4 6 8 8 7 7 7 6 5 5 5 5 5 6 5 5 5 5 5
2 2 2 2 2 2 2 3 3 4 3 2 2 2 2 2 3 2 2 2 3 3 3 4 3 3 4 6 7 7 6 5 5 5 5 5 5 5 5 5 5 5 5
2 1 2 2 2 2 3 3 3 2 2 1 1 1 2 3 2 2 1 1 2 2 3 3 3 3 3 2 6 6 6 5 5 5 5 6 6 6 5 5 5 5 5
2 1 1 1 2 2 2 3 3 3 2 1 1 2 1 1 2 2 2 1 1 1 1 1 2 2 2 3 3 5 6 5 4 5 4 4 5 5 5 5 5 5 5
2 2 2 2 2 1 2 3 3 2 2 2 1 1 2 1 1 2 2 2 1 1 1 1 1 1 2 2 4 6 5 5 5 4 4 4 4 5 5 5 5 4 5
2 2 2 2 2 2 2 2 2 3 2 2 1 1 1 1 2 2 1 2 2 1 0 0 0 1 1 1 2 5 5 4 4 4 4 4 4 4 4 4 4 4 3
2 3 2 2 2 2 2 2 2 3 2 2 2 1 1 1 2 1 2 2 1 1 1 0 0 0 0 1 2 5 4 4 4 4 4 4 3 3 3 3 3 3 2
3 3 3 3 2 2 2 2 2 3 3 3 2 2 1 2 2 2 2 2 2 2 2 2 1 1 1 1 2 3 3 2 2 2 2 2 2 2 2 2 2 2 2
3 3 3 3 3 3 3 3 2 3 3 3 2 2 2 1 1 2 2 2 2 2 2 2 2 1 1 1 1 3 3 3 1 1 1 1 1 1 1 1 1 2 1
3 4 4 3 3 4 4 3 3 3 2 2 2 2 2 2 2 2 2 2 3 2 2 2 2 2 2 1 1 2 2 4 2 1 1 1 0 1 1 1 1 1 1
4 4 4 4 4 4 4 4 3 3 3 2 2 2 2 2 1 1 2 2 3 3 2 1 1 1 1 2 2 2 1 4 3 2 1 1 0 1 1 0 0 1 1
5 5 5 4 4 4 5 4 4 4 4 4 4 4 3 2 2 2 2 2 2 3 3 2 1 2 2 2 2 2 2 3 3 4 3 2 2 1 2 2 1 1 1
5 5 5 5 5 5 5 5 5 5 5 5 4 4 4 3 3 3 2 3 3 3 3 3 2 2 3 2 2 3 2 2 2 4 4 3 3 2 2 2 2 2 2
6 6 6 6 5 5 5 5 6 5 5 5 5 5 4 4 4 3 4 3 3 3 3 3 3 2 3 2 3 3 3 2 3 3 5 4 4 4 3 3 3 3 2
7 7 6 6 6 6 6 6 6 5 5 5 5 5 5 5 5 4 4 4 3 3 4 4 3 3 3 3 3 3 3 3 3 3 3 3 4 6 5 4 4 3 3
6 6 6 6 6 5 5 6 6 6 6 5 5 5 5 3 3 3 3 4 4 4 4 4 4 4 4 4 4 3 3 3 3 2 3 3 4 4 5 6 6 5 4
6 5 6 6 6 5 4 5 6 6 6 6 6 5 5 5 5 6 6 5 5 5 5 5 4 5 5 4 3 4 3 4 3 2 3 3 3 3 3 3 4 5 5
5 5 6 6 6 5 6 6 7 7 6 6 6 5 4 4 5 6 7 9 8 7 7 7 6 6 5 4 5 5 4 4 4 1 3 3 3 3 3 2 4 5 5
5 5 5 5 5 4 6 7 7 8 6 6 6 6 6 6 5 5 5 5 5 5 6 7 7 6 5 4 4 4 4 4 4 2 3 3 2 3 2 2 6 6 5
5 5 5 5 5 5 6 7 7 6 6 6 6 5 6 6 3 5 6 6 5 4 3 4 4 4 2 2 3 3 4 4 4 3 3 3 2 2 3 3 3 6 5
5 4 4 5 5 5 5 6 7 5 5 5 4 5 4 5 3 5 6 6 6 5 4 5 5 6 6 5 6 6 5 5 4 3 3 3 2 2 3 2 2 2 3
Wind_Direction
86 89 89 85 81 84 92 90 87 84 78 71 65 62 63 65 64 70 73 63 59 61 63 64 67 68 69 73 77 77 78 76 74 74 73 70 70 69 74 83 85 82 84
92 92 91 86 82 81 84 93 92 90 85 76 68 62 57 59 62 67 75 81 69 61 60 60 63 62 64 67 73 76 76 75 71 69 69 68 68 67 69 74 74 75 74
97 98 98 100 97 99 100 93 92 89 92 92 81 70 63 57 62 62 60 62 79 75 64 59 58 58 62 65 67 71 74 74 72 69 69 67 67 70 68 68 68 71 71
95 101 103 103 108 111 109 106 103 101 97 90 80 70 70 68 66 62 67 67 57 63 75 63 56 55 56 62 64 65 66 70 73 70 71 72 71 71 67 67 70 72 73
101 99 97 109 117 118 118 117 110 105 99 95 87 74 61 64 62 62 70 66 64 56 68 81 70 56 52 61 68 68 66 66 70 73 71 72 72 74 70 67 70 72 77
95 103 119 119 122 126 126 127 122 112 103 105 96 79 64 74 71 57 60 67 62 58 55 63 81 79 62 55 62 73 73 68 64 67 71 73 75 74 73 69 71 75 78
103 109 128 126 136 134 142 145 137 131 126 127 131 117 106 87 73 74 56 60 72 62 65 65 58 62 86 80 60 64 70 70 68 66 65 69 75 72 67 66 69 76 77
108 117 144 139 144 146 160 157 153 152 139 187 222 195 164 149 127 98 82 65 73 80 65 64 66 63 53 75 75 61 55 57 68 75 68 65 67 67 61 68 71 71 76
134 141 136 141 153 171 171 177 175 185 176 182 283 282 262 122 133 135 105 103 79 63 70 55 62 65 68 66 86 80 54 50 65 79 75 69 68 66 61 62 67 70 69
157 166 174 176 171 167 174 189 188 198 205 188 175 294 326 360 260 155 150 125 108 71 41 50 36 57 67 74 74 64 57 49 58 77 80 72 70 67 62 57 58 69 69
176 183 196 200 194 188 189 188 193 213 221 221 210 189 173 218 261 265 194 177 165 147 92 348 41 16 50 72 75 75 67 53 52 60 65 71 74 74 65 61 56 64 71
188 189 204 214 209 201 198 200 201 212 231 224 231 225 229 243 247 257 245 217 196 151 171 168 257 75 60 104 83 78 77 63 60 57 58 57 59 67 63 60 53 48 68
197 192 205 213 214 212 207 206 209 213 217 225 236 249 254 268 273 277 266 256 237 190 192 186 179 194 197 193 125 119 114 86 66 62 60 57 51 50 43 45 49 39 64
203 195 208 215 212 212 209 206 225 224 229 224 235 242 249 258 257 254 258 258 247 211 204 187 169 196 196 196 119 213 151 132 117 91 101 113 79 54 47 55 52 33 36
209 210 209 216 214 215 220 215 221 217 223 226 223 221 230 231 233 246 244 255 273 265 224 191 193 189 202 195 180 212 203 134 163 174 153 145 141 107 80 57 47 24 21
210 212 215 217 218 214 212 217 227 227 217 208 221 227 225 221 220 224 236 254 269 277 267 176 209 187 198 210 194 237 201 151 163 186 191 183 191 215 194 204 305 336 344
214 217 220 225 223 217 211 208 218 215 216 208 205 208 211 213 216 218 222 234 246 258 254 243 233 212 209 228 196 230 223 211 173 177 196 213 220 226 231 229 226 236 236
219 225 225 228 225 222 220 215 212 214 216 218 215 214 215 206 217 224 226 229 227 242 247 247 232 221 229 231 235 235 230 227 223 159 184 207 220 227 231 227 227 226 224
221 222 224 228 225 222 218 221 219 217 217 222 225 225 225 218 220 218 228 237 233 229 240 242 237 227 232 229 232 232 228 230 236 185 188 201 213 224 227 223 222 218 215
226 226 226 226 227 224 220 219 220 223 224 226 230 231 234 232 231 229 229 235 232 223 228 234 236 231 228 223 232 236 230 219 232 221 215 219 207 212 215 216 213 210 215
231 230 230 229 225 224 225 224 219 224 228 229 230 231 234 248 283 263 253 238 229 228 225 230 236 236 230 223 230 235 244 244 233 230 238 228 215 219 207 207 210 216 219
228 228 230 230 225 223 204 225 239 227 230 230 232 231 221 217 215 218 235 250 258 247 242 239 241 241 239 236 237 240 243 245 240 207 246 242 232 236 232 224 189 201 213
223 226 227 227 227 215 191 207 229 240 237 237 235 233 230 226 225 226 213 214 227 239 252 259 254 252 246 238 235 236 238 248 259 206 236 241 235 246 235 206 179 202 216
220 223 227 227 230 218 195 205 217 233 238 238 237 238 234 231 228 239 235 229 232 228 230 238 248 253 253 251 244 244 247 251 253 220 229 253 243 253 250 217 177 198 212
224 224 226 226 224 215 195 201 216 227 231 233 234 239 245 242 213 225 234 235 233 228 211 230 270 273 296 279 254 232 226 229 237 222 215 252 258 263 247 227 179 187 203
218 222 224 226 223 223 190 195 217 228 231 231 231 229 234 245 218 218 228 234 239 238 227 212 214 214 222 209 211 229 234 234 240 234 199 235 243 254 252 216 213 202 207